Time,TemperatureF,DewpointF,PressureIn,WindDirection,WindDirectionDegrees,WindSpeedMPH,WindSpeedGustMPH,Humidity,HourlyPrecipIn,Conditions,Clouds,dailyrainin,SoftwareType,DateUTC
2013-01-28 00:02:00,51.6,48.8,29.39,South,174,8.0,9.0,90,0.00,,,0.00,Wunderground v.1.15,2013-01-28 06:02:00,
2013-01-28 00:07:00,52.3,49.5,29.39,South,172,6.0,9.0,90,0.00,,,0.00,Wunderground v.1.15,2013-01-28 06:07:00,
2013-01-28 00:12:00,51.9,49.1,29.39,South,174,4.0,7.0,90,0.00,,,0.00,Wunderground v.1.15,2013-01-28 06:12:00,
2013-01-28 00:18:00,52.0,49.2,29.39,South,170,6.0,7.0,90,0.00,,,0.00,Wunderground v.1.15,2013-01-28 06:18:00,
2013-01-28 00:23:00,52.1,49.3,29.38,South,178,6.0,8.0,90,0.00,,,0.00,Wunderground v.1.15,2013-01-28 06:23:00,
2013-01-28 00:28:00,52.2,49.4,29.38,SSE,168,7.0,8.0,90,0.00,,,0.00,Wunderground v.1.15,2013-01-28 06:28:00,
2013-01-28 00:34:00,52.4,49.6,29.38,South,176,8.0,10.0,90,0.00,,,0.00,Wunderground v.1.15,2013-01-28 06:34:00,
2013-01-28 00:39:00,52.4,49.6,29.38,South,173,7.0,10.0,90,0.00,,,0.00,Wunderground v.1.15,2013-01-28 06:39:00,
2013-01-28 00:45:00,52.4,49.6,29.38,South,173,5.0,10.0,90,0.00,,,0.00,Wunderground v.1.15,2013-01-28 06:45:00,
2013-01-28 00:50:00,52.4,49.6,29.38,South,179,6.0,7.0,90,0.00,,,0.00,Wunderground v.1.15,2013-01-28 06:50:00,
2013-01-28 00:55:00,52.6,49.8,29.38,SSW,196,5.0,10.0,90,0.00,,,0.00,Wunderground v.1.15,2013-01-28 06:55:00,
2013-01-28 01:00:00,52.6,49.8,29.38,South,174,8.0,8.0,90,0.00,,,0.00,Wunderground v.1.15,2013-01-28 07:00:00,
2013-01-28 01:06:00,52.8,49.9,29.38,SSE,166,8.0,9.0,90,0.00,,,0.00,Wunderground v.1.15,2013-01-28 07:06:00,
2013-01-28 01:12:00,52.8,49.9,29.38,South,182,9.0,9.0,90,0.00,,,0.00,Wunderground v.1.15,2013-01-28 07:12:00,
2013-01-28 01:17:00,52.9,50.0,29.38,South,171,8.0,10.0,90,0.00,,,0.00,Wunderground v.1.15,2013-01-28 07:17:00,
2013-01-28 01:22:00,53.0,49.8,29.38,South,184,8.0,8.0,89,0.00,,,0.00,Wunderground v.1.15,2013-01-28 07:22:00,
2013-01-28 01:28:00,53.1,49.9,29.38,South,175,8.0,9.0,89,0.00,,,0.00,Wunderground v.1.15,2013-01-28 07:28:00,
2013-01-28 01:33:00,53.2,50.0,29.38,South,170,10.0,12.0,89,0.00,,,0.00,Wunderground v.1.15,2013-01-28 07:33:00,
2013-01-28 01:38:00,53.2,50.0,29.38,South,169,9.0,12.0,89,0.00,,,0.00,Wunderground v.1.15,2013-01-28 07:38:00,
2013-01-28 01:44:00,53.4,50.2,29.38,South,175,6.0,10.0,89,0.00,,,0.00,Wunderground v.1.15,2013-01-28 07:44:00,
2013-01-28 01:50:00,53.5,50.3,29.39,SSE,167,8.0,8.0,89,0.00,,,0.00,Wunderground v.1.15,2013-01-28 07:50:00,
2013-01-28 01:55:00,53.6,50.4,29.38,South,172,10.0,10.0,89,0.00,,,0.00,Wunderground v.1.15,2013-01-28 07:55:00,
2013-01-28 02:00:00,53.7,50.5,29.39,SSE,151,8.0,8.0,89,0.00,,,0.00,Wunderground v.1.15,2013-01-28 08:00:00,
2013-01-28 02:05:00,54.6,51.4,29.38,South,180,7.0,13.0,89,0.00,,,0.00,Wunderground v.1.15,2013-01-28 08:05:00,
2013-01-28 02:10:00,53.9,50.7,29.38,South,176,8.0,8.0,89,0.00,,,0.00,Wunderground v.1.15,2013-01-28 08:10:00,
2013-01-28 02:15:00,54.0,50.8,29.38,South,177,6.0,13.0,89,0.00,,,0.00,Wunderground v.1.15,2013-01-28 08:15:00,
2013-01-28 02:20:00,54.1,50.9,29.38,South,186,12.0,12.0,89,0.00,,,0.00,Wunderground v.1.15,2013-01-28 08:20:00,
2013-01-28 02:25:00,54.2,51.0,29.38,South,186,7.0,16.0,89,0.00,,,0.00,Wunderground v.1.15,2013-01-28 08:25:00,
2013-01-28 02:30:00,54.3,-99.9,29.38,SSW,200,6.0,10.0,255,0.00,,,0.00,Wunderground v.1.15,2013-01-28 08:30:00,
2013-01-28 02:36:00,54.4,50.9,29.38,South,177,7.0,13.0,88,0.00,,,0.00,Wunderground v.1.15,2013-01-28 08:36:00,
2013-01-28 02:41:00,54.5,51.3,29.38,South,178,12.0,19.0,89,0.00,,,0.00,Wunderground v.1.15,2013-01-28 08:41:00,
2013-01-28 02:47:00,54.5,51.0,29.38,South,175,18.0,19.0,88,0.00,,,0.00,Wunderground v.1.15,2013-01-28 08:47:00,
2013-01-28 02:52:00,54.6,51.4,29.37,South,186,9.0,12.0,89,0.00,,,0.00,Wunderground v.1.15,2013-01-28 08:52:00,
2013-01-28 02:57:00,54.8,51.3,29.37,South,169,7.0,16.0,88,0.00,,,0.00,Wunderground v.1.15,2013-01-28 08:57:00,
2013-01-28 03:02:00,54.8,51.3,29.38,South,187,7.0,14.0,88,0.00,,,0.00,Wunderground v.1.15,2013-01-28 09:02:00,
2013-01-28 03:07:00,54.8,51.6,29.38,South,184,11.0,16.0,89,0.00,,,0.00,Wunderground v.1.15,2013-01-28 09:07:00,
2013-01-28 03:13:00,54.7,51.5,29.37,SSE,155,8.0,13.0,89,0.00,,,0.00,Wunderground v.1.15,2013-01-28 09:13:00,
2013-01-28 03:18:00,54.7,52.4,29.37,SSW,200,14.0,14.0,92,0.00,,,0.00,Wunderground v.1.15,2013-01-28 09:18:00,
2013-01-28 03:24:00,54.8,51.6,29.37,South,188,6.0,15.0,89,0.00,,,0.00,Wunderground v.1.15,2013-01-28 09:24:00,
2013-01-28 03:31:00,54.9,51.7,29.37,South,171,10.0,10.0,89,0.00,,,0.00,Wunderground v.1.15,2013-01-28 09:31:00,
2013-01-28 03:36:00,54.8,51.6,29.37,South,180,5.0,16.0,89,0.00,,,0.00,Wunderground v.1.15,2013-01-28 09:36:00,
2013-01-28 03:41:00,54.8,51.6,29.37,South,171,9.0,10.0,89,0.00,,,0.00,Wunderground v.1.15,2013-01-28 09:41:00,
2013-01-28 03:46:00,54.6,52.3,29.37,SSW,209,9.0,11.0,92,0.00,,,0.00,Wunderground v.1.15,2013-01-28 09:46:00,
2013-01-28 03:51:00,54.6,51.4,29.37,South,175,13.0,13.0,89,0.00,,,0.00,Wunderground v.1.15,2013-01-28 09:51:00,
2013-01-28 03:57:00,54.7,52.4,29.38,South,188,7.0,17.0,92,0.00,,,0.00,Wunderground v.1.15,2013-01-28 09:57:00,
2013-01-28 04:02:00,54.7,51.5,29.38,South,171,7.0,12.0,89,0.00,,,0.00,Wunderground v.1.15,2013-01-28 10:02:00,
2013-01-28 04:07:00,54.7,52.4,29.37,South,173,8.0,12.0,92,0.00,,,0.00,Wunderground v.1.15,2013-01-28 10:07:00,
2013-01-28 04:13:00,54.6,51.4,29.37,SSW,197,6.0,10.0,89,0.00,,,0.00,Wunderground v.1.15,2013-01-28 10:13:00,
2013-01-28 04:18:00,54.6,51.7,29.37,South,179,8.0,10.0,90,0.00,,,0.00,Wunderground v.1.15,2013-01-28 10:18:00,
2013-01-28 04:23:00,54.5,51.6,29.37,South,174,6.0,9.0,90,0.00,,,0.00,Wunderground v.1.15,2013-01-28 10:23:00,
2013-01-28 04:29:00,54.5,51.9,29.37,South,178,5.0,11.0,91,0.00,,,0.00,Wunderground v.1.15,2013-01-28 10:29:00,
2013-01-28 04:34:00,54.5,51.9,29.38,South,184,6.0,11.0,91,0.00,,,0.00,Wunderground v.1.15,2013-01-28 10:34:00,
2013-01-28 04:39:00,54.4,51.8,29.38,SSW,201,5.0,12.0,91,0.00,,,0.00,Wunderground v.1.15,2013-01-28 10:39:00,
2013-01-28 04:45:00,54.4,51.8,29.38,South,180,5.0,8.0,91,0.00,,,0.00,Wunderground v.1.15,2013-01-28 10:45:00,
2013-01-28 04:51:00,54.5,51.9,29.38,South,172,7.0,7.0,91,0.00,,,0.00,Wunderground v.1.15,2013-01-28 10:51:00,
2013-01-28 04:56:00,54.7,52.1,29.38,South,189,6.0,11.0,91,0.00,,,0.00,Wunderground v.1.15,2013-01-28 10:56:00,
2013-01-28 05:02:00,54.8,51.9,29.37,SSW,196,6.0,8.0,90,0.00,,,0.00,Wunderground v.1.15,2013-01-28 11:02:00,
2013-01-28 05:07:00,54.9,52.0,29.37,South,180,6.0,11.0,90,0.00,,,0.00,Wunderground v.1.15,2013-01-28 11:07:00,
2013-01-28 05:12:00,55.0,52.1,29.37,South,190,6.0,8.0,90,0.00,,,0.00,Wunderground v.1.15,2013-01-28 11:12:00,
2013-01-28 05:17:00,55.1,52.2,29.37,SW,226,14.0,14.0,90,0.00,,,0.00,Wunderground v.1.15,2013-01-28 11:17:00,
2013-01-28 05:22:00,55.2,52.3,29.37,South,188,10.0,12.0,90,0.00,,,0.00,Wunderground v.1.15,2013-01-28 11:22:00,
2013-01-28 05:27:00,55.1,52.2,29.37,SSW,194,6.0,13.0,90,0.00,,,0.00,Wunderground v.1.15,2013-01-28 11:27:00,
2013-01-28 05:33:00,55.1,52.2,29.37,South,180,6.0,8.0,90,0.00,,,0.00,Wunderground v.1.15,2013-01-28 11:33:00,
2013-01-28 05:38:00,55.1,52.2,29.37,SSW,200,11.0,12.0,90,0.00,,,0.00,Wunderground v.1.15,2013-01-28 11:38:00,
2013-01-28 05:44:00,55.1,52.2,29.38,SSW,201,4.0,12.0,90,0.00,,,0.00,Wunderground v.1.15,2013-01-28 11:44:00,
2013-01-28 05:49:00,55.1,52.2,29.38,SSW,197,4.0,12.0,90,0.00,,,0.00,Wunderground v.1.15,2013-01-28 11:49:00,
2013-01-28 05:54:00,55.1,52.2,29.38,SSW,195,9.0,13.0,90,0.00,,,0.00,Wunderground v.1.15,2013-01-28 11:54:00,
2013-01-28 05:59:00,55.1,52.2,29.38,SSW,192,4.0,13.0,90,0.00,,,0.00,Wunderground v.1.15,2013-01-28 11:59:00,
2013-01-28 06:04:00,55.1,52.2,29.38,South,170,4.0,10.0,90,0.00,,,0.00,Wunderground v.1.15,2013-01-28 12:04:00,
2013-01-28 06:09:00,55.2,52.3,29.38,SSW,199,2.0,12.0,90,0.00,,,0.00,Wunderground v.1.15,2013-01-28 12:09:00,
2013-01-28 06:14:00,55.3,52.4,29.38,South,191,8.0,11.0,90,0.00,,,0.00,Wunderground v.1.15,2013-01-28 12:14:00,
2013-01-28 06:20:00,55.3,52.4,29.38,South,186,4.0,4.0,90,0.00,,,0.00,Wunderground v.1.15,2013-01-28 12:20:00,
2013-01-28 06:26:00,55.3,52.4,29.38,South,171,6.0,8.0,90,0.00,,,0.00,Wunderground v.1.15,2013-01-28 12:26:00,
2013-01-28 06:31:00,55.3,52.4,29.39,South,184,5.0,5.0,90,0.00,,,0.00,Wunderground v.1.15,2013-01-28 12:31:00,
2013-01-28 06:36:00,55.3,52.1,29.39,SSW,199,2.0,8.0,89,0.00,,,0.00,Wunderground v.1.15,2013-01-28 12:36:00,
2013-01-28 06:42:00,55.2,52.3,29.39,SW,215,4.0,8.0,90,0.00,,,0.00,Wunderground v.1.15,2013-01-28 12:42:00,
2013-01-28 06:47:00,55.4,52.5,29.39,South,186,4.0,8.0,90,0.00,,,0.00,Wunderground v.1.15,2013-01-28 12:47:00,
2013-01-28 06:52:00,55.4,52.5,29.39,South,178,6.0,8.0,90,0.00,,,0.00,Wunderground v.1.15,2013-01-28 12:52:00,
2013-01-28 06:58:00,55.7,52.2,29.39,South,190,4.0,9.0,88,0.00,,,0.00,Wunderground v.1.15,2013-01-28 12:58:00,
2013-01-28 07:03:00,55.3,52.4,29.39,South,186,3.0,5.0,90,0.00,,,0.00,Wunderground v.1.15,2013-01-28 13:03:00,
2013-01-28 07:08:00,55.2,52.3,29.39,South,185,6.0,6.0,90,0.00,,,0.00,Wunderground v.1.15,2013-01-28 13:08:00,
2013-01-28 07:13:00,55.3,52.4,29.39,South,190,3.0,8.0,90,0.00,,,0.00,Wunderground v.1.15,2013-01-28 13:13:00,
2013-01-28 07:19:00,55.2,52.6,29.39,South,178,4.0,8.0,91,0.00,,,0.00,Wunderground v.1.15,2013-01-28 13:19:00,
2013-01-28 07:26:00,55.3,52.4,29.39,South,186,4.0,8.0,90,0.00,,,0.00,Wunderground v.1.15,2013-01-28 13:26:00,
2013-01-28 07:32:00,55.5,52.9,29.40,SSW,200,4.0,8.0,91,0.00,,,0.00,Wunderground v.1.15,2013-01-28 13:32:00,
2013-01-28 07:37:00,55.7,52.8,29.40,SSW,194,3.0,10.0,90,0.00,,,0.00,Wunderground v.1.15,2013-01-28 13:37:00,
2013-01-28 07:42:00,55.7,52.8,29.40,South,187,2.0,6.0,90,0.00,,,0.00,Wunderground v.1.15,2013-01-28 13:42:00,
2013-01-28 07:48:00,55.8,52.9,29.40,South,188,3.0,10.0,90,0.00,,,0.00,Wunderground v.1.15,2013-01-28 13:48:00,
2013-01-28 07:53:00,55.8,52.9,29.40,SSW,206,5.0,6.0,90,0.00,,,0.00,Wunderground v.1.15,2013-01-28 13:53:00,
2013-01-28 07:58:00,55.8,52.9,29.40,South,188,7.0,7.0,90,0.00,,,0.00,Wunderground v.1.15,2013-01-28 13:58:00,
2013-01-28 08:03:00,55.9,53.0,29.41,SSW,201,1.0,9.0,90,0.00,,,0.00,Wunderground v.1.15,2013-01-28 14:03:00,
2013-01-28 08:08:00,56.0,53.1,29.41,SSW,196,4.0,10.0,90,0.00,,,0.00,Wunderground v.1.15,2013-01-28 14:08:00,
2013-01-28 08:13:00,56.1,53.2,29.41,South,188,4.0,9.0,90,0.00,,,0.00,Wunderground v.1.15,2013-01-28 14:13:00,
2013-01-28 08:19:00,56.1,53.2,29.41,South,185,3.0,9.0,90,0.00,,,0.00,Wunderground v.1.15,2013-01-28 14:19:00,
2013-01-28 08:24:00,56.2,53.3,29.41,South,180,7.0,10.0,90,0.00,,,0.00,Wunderground v.1.15,2013-01-28 14:24:00,
2013-01-28 08:29:00,56.3,53.4,29.41,South,191,4.0,10.0,90,0.00,,,0.00,Wunderground v.1.15,2013-01-28 14:29:00,
2013-01-28 08:34:00,56.3,53.4,29.41,SSW,196,6.0,9.0,90,0.00,,,0.00,Wunderground v.1.15,2013-01-28 14:34:00,
2013-01-28 08:39:00,56.4,53.5,29.41,SSW,200,4.0,9.0,90,0.00,,,0.00,Wunderground v.1.15,2013-01-28 14:39:00,
2013-01-28 08:45:00,56.4,53.5,29.41,South,183,4.0,10.0,90,0.00,,,0.00,Wunderground v.1.15,2013-01-28 14:45:00,
2013-01-28 08:50:00,56.5,53.6,29.41,South,188,1.0,5.0,90,0.00,,,0.00,Wunderground v.1.15,2013-01-28 14:50:00,
2013-01-28 08:55:00,56.6,53.7,29.41,South,177,6.0,9.0,90,0.00,,,0.00,Wunderground v.1.15,2013-01-28 14:55:00,
2013-01-28 09:00:00,56.8,53.9,29.41,South,177,5.0,6.0,90,0.00,,,0.00,Wunderground v.1.15,2013-01-28 15:00:00,
2013-01-28 09:05:00,56.9,54.0,29.41,South,189,9.0,9.0,90,0.00,,,0.00,Wunderground v.1.15,2013-01-28 15:05:00,
2013-01-28 09:10:00,57.0,53.8,29.41,South,190,5.0,5.0,89,0.00,,,0.00,Wunderground v.1.15,2013-01-28 15:10:00,
2013-01-28 09:15:00,57.2,54.0,29.41,South,180,9.0,10.0,89,0.00,,,0.00,Wunderground v.1.15,2013-01-28 15:15:00,
2013-01-28 09:20:00,57.3,54.1,29.41,South,186,7.0,7.0,89,0.00,,,0.00,Wunderground v.1.15,2013-01-28 15:20:00,
2013-01-28 09:25:00,57.4,54.2,29.41,South,174,7.0,8.0,89,0.00,,,0.00,Wunderground v.1.15,2013-01-28 15:25:00,
2013-01-28 09:30:00,57.6,54.4,29.41,South,173,5.0,7.0,89,0.00,,,0.00,Wunderground v.1.15,2013-01-28 15:30:00,
2013-01-28 09:36:00,57.7,54.2,29.41,SSE,167,5.0,11.0,88,0.00,,,0.00,Wunderground v.1.15,2013-01-28 15:36:00,
2013-01-28 09:42:00,57.7,54.5,29.41,SSW,197,7.0,7.0,89,0.00,,,0.00,Wunderground v.1.15,2013-01-28 15:42:00,
2013-01-28 09:47:00,57.8,54.6,29.41,South,184,5.0,9.0,89,0.00,,,0.00,Wunderground v.1.15,2013-01-28 15:47:00,
2013-01-28 09:52:00,58.0,54.5,29.42,SSW,198,6.0,6.0,88,0.00,,,0.00,Wunderground v.1.15,2013-01-28 15:52:00,
2013-01-28 09:57:00,58.0,54.5,29.42,South,178,12.0,12.0,88,0.00,,,0.00,Wunderground v.1.15,2013-01-28 15:57:00,
2013-01-28 10:03:00,58.1,54.6,29.42,SSW,194,5.0,6.0,88,0.00,,,0.00,Wunderground v.1.15,2013-01-28 16:03:00,
2013-01-28 10:08:00,58.1,54.6,29.42,South,178,5.0,9.0,88,0.00,,,0.00,Wunderground v.1.15,2013-01-28 16:08:00,
2013-01-28 10:14:00,58.2,54.7,29.42,SSW,195,4.0,9.0,88,0.00,,,0.00,Wunderground v.1.15,2013-01-28 16:14:00,
2013-01-28 10:19:00,58.2,54.7,29.42,South,171,5.0,10.0,88,0.00,,,0.00,Wunderground v.1.15,2013-01-28 16:19:00,
2013-01-28 10:24:00,58.2,54.7,29.42,SSW,194,3.0,9.0,88,0.00,,,0.00,Wunderground v.1.15,2013-01-28 16:24:00,
2013-01-28 10:29:00,58.2,54.7,29.42,South,182,5.0,9.0,88,0.00,,,0.00,Wunderground v.1.15,2013-01-28 16:29:00,
2013-01-28 10:35:00,58.2,54.7,29.42,South,179,6.0,8.0,88,0.00,,,0.00,Wunderground v.1.15,2013-01-28 16:35:00,
2013-01-28 10:40:00,58.4,54.9,29.42,South,178,6.0,6.0,88,0.00,,,0.00,Wunderground v.1.15,2013-01-28 16:40:00,
2013-01-28 10:46:00,58.9,54.7,29.42,South,171,6.0,8.0,86,0.00,,,0.00,Wunderground v.1.15,2013-01-28 16:46:00,
2013-01-28 10:51:00,59.0,55.1,29.42,SSE,163,2.0,7.0,87,0.00,,,0.00,Wunderground v.1.15,2013-01-28 16:51:00,
2013-01-28 10:56:00,59.0,55.4,29.42,South,169,5.0,10.0,88,0.00,,,0.00,Wunderground v.1.15,2013-01-28 16:56:00,
2013-01-28 11:01:00,59.3,55.4,29.42,South,180,5.0,10.0,87,0.00,,,0.00,Wunderground v.1.15,2013-01-28 17:01:00,
2013-01-28 11:06:00,59.6,55.4,29.41,SSE,167,6.0,10.0,86,0.00,,,0.00,Wunderground v.1.15,2013-01-28 17:06:00,
2013-01-28 11:11:00,59.7,55.8,29.41,South,180,5.0,6.0,87,0.00,,,0.00,Wunderground v.1.15,2013-01-28 17:11:00,
2013-01-28 11:16:00,59.9,56.0,29.41,South,174,10.0,10.0,87,0.00,,,0.00,Wunderground v.1.15,2013-01-28 17:16:00,
2013-01-28 11:23:00,60.3,56.1,29.41,South,171,5.0,7.0,86,0.00,,,0.00,Wunderground v.1.15,2013-01-28 17:23:00,
2013-01-28 11:28:00,60.6,56.4,29.41,South,170,2.0,7.0,86,0.00,,,0.00,Wunderground v.1.15,2013-01-28 17:28:00,
2013-01-28 11:34:00,60.8,56.6,29.40,SSE,161,5.0,7.0,86,0.00,,,0.00,Wunderground v.1.15,2013-01-28 17:34:00,
2013-01-28 11:40:00,61.1,56.9,29.40,South,171,2.0,2.0,86,0.00,,,0.00,Wunderground v.1.15,2013-01-28 17:40:00,
2013-01-28 11:46:00,61.3,56.8,29.40,South,174,6.0,7.0,85,0.00,,,0.00,Wunderground v.1.15,2013-01-28 17:46:00,
2013-01-28 11:51:00,61.4,56.8,29.40,South,169,6.0,7.0,85,0.00,,,0.00,Wunderground v.1.15,2013-01-28 17:51:00,
2013-01-28 11:57:00,61.5,56.9,29.40,South,183,0.0,9.0,85,0.00,,,0.00,Wunderground v.1.15,2013-01-28 17:57:00,
2013-01-28 12:02:00,61.5,56.9,29.39,South,175,4.0,7.0,85,0.00,,,0.00,Wunderground v.1.15,2013-01-28 18:02:00,
2013-01-28 12:07:00,61.6,57.0,29.39,South,169,2.0,7.0,85,0.00,,,0.00,Wunderground v.1.15,2013-01-28 18:07:00,
2013-01-28 12:12:00,61.6,57.0,29.39,South,180,1.0,7.0,85,0.00,,,0.00,Wunderground v.1.15,2013-01-28 18:12:00,
2013-01-28 12:18:00,61.6,57.0,29.39,SSE,165,4.0,7.0,85,0.00,,,0.00,Wunderground v.1.15,2013-01-28 18:18:00,
2013-01-28 12:23:00,61.6,57.0,29.39,South,171,2.0,6.0,85,0.00,,,0.00,Wunderground v.1.15,2013-01-28 18:23:00,
2013-01-28 12:28:00,61.7,57.1,29.38,SSE,167,8.0,9.0,85,0.00,,,0.00,Wunderground v.1.15,2013-01-28 18:28:00,
2013-01-28 12:33:00,61.8,56.9,29.38,South,175,6.0,8.0,84,0.00,,,0.00,Wunderground v.1.15,2013-01-28 18:33:00,
2013-01-28 12:38:00,61.8,56.9,29.38,South,171,1.0,8.0,84,0.00,,,0.00,Wunderground v.1.15,2013-01-28 18:38:00,
2013-01-28 12:43:00,61.8,57.2,29.38,South,169,4.0,7.0,85,0.00,,,0.00,Wunderground v.1.15,2013-01-28 18:43:00,
2013-01-28 12:48:00,62.2,57.6,29.37,SSE,165,5.0,10.0,85,0.00,,,0.00,Wunderground v.1.15,2013-01-28 18:48:00,
2013-01-28 12:53:00,62.3,57.4,29.37,SSE,155,4.0,7.0,84,0.00,,,0.00,Wunderground v.1.15,2013-01-28 18:53:00,
2013-01-28 12:58:00,62.6,57.0,29.37,South,178,5.0,7.0,82,0.00,,,0.00,Wunderground v.1.15,2013-01-28 18:58:00,
2013-01-28 13:03:00,62.6,57.7,29.37,SSE,159,5.0,7.0,84,0.00,,,0.00,Wunderground v.1.15,2013-01-28 19:03:00,
2013-01-28 13:09:00,62.7,57.8,29.36,South,185,1.0,8.0,84,0.00,,,0.00,Wunderground v.1.15,2013-01-28 19:09:00,
2013-01-28 13:14:00,62.9,57.7,29.36,SSE,160,4.0,8.0,83,0.00,,,0.00,Wunderground v.1.15,2013-01-28 19:14:00,
2013-01-28 13:19:00,63.0,58.1,29.36,SSE,161,0.0,8.0,84,0.00,,,0.00,Wunderground v.1.15,2013-01-28 19:19:00,
2013-01-28 13:24:00,63.1,58.2,29.36,SSE,157,1.0,8.0,84,0.00,,,0.00,Wunderground v.1.15,2013-01-28 19:24:00,
2013-01-28 13:29:00,63.5,58.2,29.36,SSE,157,2.0,8.0,83,0.00,,,0.00,Wunderground v.1.15,2013-01-28 19:29:00,
2013-01-28 13:34:00,63.5,58.2,29.35,SSE,155,0.0,8.0,83,0.00,,,0.00,Wunderground v.1.15,2013-01-28 19:34:00,
2013-01-28 13:39:00,63.7,58.4,29.35,SSE,165,0.0,8.0,83,0.00,,,0.00,Wunderground v.1.15,2013-01-28 19:39:00,
2013-01-28 13:44:00,64.1,58.8,29.35,South,180,4.0,5.0,83,0.00,,,0.00,Wunderground v.1.15,2013-01-28 19:44:00,
2013-01-28 13:49:00,64.3,59.0,29.35,SSE,148,0.0,7.0,83,0.00,,,0.00,Wunderground v.1.15,2013-01-28 19:49:00,
2013-01-28 13:54:00,64.9,59.6,29.35,SE,145,1.0,5.0,83,0.00,,,0.00,Wunderground v.1.15,2013-01-28 19:54:00,
2013-01-28 13:59:00,65.4,59.8,29.34,SSE,163,5.0,6.0,82,0.00,,,0.00,Wunderground v.1.15,2013-01-28 19:59:00,
2013-01-28 14:04:00,65.9,59.9,29.34,SSE,158,0.0,5.0,81,0.00,,,0.00,Wunderground v.1.15,2013-01-28 20:04:00,
2013-01-28 14:10:00,66.4,60.0,29.34,SSE,161,6.0,7.0,80,0.00,,,0.00,Wunderground v.1.15,2013-01-28 20:10:00,
2013-01-28 14:15:00,66.6,60.2,29.34,SSE,163,0.0,5.0,80,0.00,,,0.00,Wunderground v.1.15,2013-01-28 20:15:00,
2013-01-28 14:20:00,67.0,59.9,29.33,South,178,0.0,8.0,78,0.00,,,0.00,Wunderground v.1.15,2013-01-28 20:20:00,
2013-01-28 14:26:00,67.6,60.5,29.33,South,171,0.0,2.0,78,0.00,,,0.00,Wunderground v.1.15,2013-01-28 20:26:00,
2013-01-28 14:31:00,68.0,60.5,29.33,SE,144,2.0,2.0,77,0.00,,,0.00,Wunderground v.1.15,2013-01-28 20:31:00,
2013-01-28 14:36:00,68.1,60.6,29.33,SSE,160,0.0,6.0,77,0.00,,,0.00,Wunderground v.1.15,2013-01-28 20:36:00,
2013-01-28 14:42:00,69.2,61.3,29.33,SSE,161,2.0,2.0,76,0.00,,,0.00,Wunderground v.1.15,2013-01-28 20:42:00,
2013-01-28 14:47:00,68.3,60.4,29.33,SSE,163,1.0,7.0,76,0.00,,,0.00,Wunderground v.1.15,2013-01-28 20:47:00,
2013-01-28 14:52:00,68.5,61.0,29.33,SSE,165,5.0,5.0,77,0.00,,,0.00,Wunderground v.1.15,2013-01-28 20:52:00,
2013-01-28 14:57:00,68.8,60.6,29.33,SSE,165,5.0,6.0,75,0.00,,,0.00,Wunderground v.1.15,2013-01-28 20:57:00,
2013-01-28 15:02:00,68.6,60.7,29.33,SSE,157,0.0,6.0,76,0.00,,,0.00,Wunderground v.1.15,2013-01-28 21:02:00,
2013-01-28 15:08:00,69.0,60.0,29.33,SSE,163,5.0,6.0,73,0.00,,,0.00,Wunderground v.1.15,2013-01-28 21:08:00,
2013-01-28 15:14:00,69.1,60.8,29.33,SSE,155,2.0,8.0,75,0.00,,,0.00,Wunderground v.1.15,2013-01-28 21:14:00,
2013-01-28 15:20:00,69.2,60.9,29.33,SSE,161,0.0,2.0,75,0.00,,,0.00,Wunderground v.1.15,2013-01-28 21:20:00,
2013-01-28 15:25:00,69.4,60.8,29.33,SSE,155,6.0,11.0,74,0.00,,,0.00,Wunderground v.1.15,2013-01-28 21:25:00,
2013-01-28 15:30:00,69.7,60.7,29.33,South,175,2.0,4.0,73,0.00,,,0.00,Wunderground v.1.15,2013-01-28 21:30:00,
2013-01-28 15:35:00,69.4,60.4,29.33,SSE,159,2.0,9.0,73,0.00,,,0.00,Wunderground v.1.15,2013-01-28 21:35:00,
2013-01-28 15:41:00,69.2,60.6,29.33,SSE,159,4.0,6.0,74,0.00,,,0.00,Wunderground v.1.15,2013-01-28 21:41:00,
2013-01-28 15:46:00,69.1,60.5,29.32,SE,145,1.0,8.0,74,0.00,,,0.00,Wunderground v.1.15,2013-01-28 21:46:00,
2013-01-28 15:51:00,69.3,60.7,29.32,SSE,153,0.0,6.0,74,0.00,,,0.00,Wunderground v.1.15,2013-01-28 21:51:00,
2013-01-28 15:56:00,69.4,60.4,29.32,SE,138,4.0,8.0,73,0.00,,,0.00,Wunderground v.1.15,2013-01-28 21:56:00,
2013-01-28 16:01:00,70.0,60.9,29.32,SSE,159,0.0,4.0,73,0.00,,,0.00,Wunderground v.1.15,2013-01-28 22:01:00,
2013-01-28 16:06:00,69.3,60.3,29.32,SSE,150,0.0,4.0,73,0.00,,,0.00,Wunderground v.1.15,2013-01-28 22:06:00,
2013-01-28 16:12:00,69.4,60.4,29.32,SE,137,8.0,8.0,73,0.00,,,0.00,Wunderground v.1.15,2013-01-28 22:12:00,
2013-01-28 16:17:00,69.4,60.4,29.31,SE,133,0.0,8.0,73,0.00,,,0.00,Wunderground v.1.15,2013-01-28 22:17:00,
2013-01-28 16:22:00,69.3,60.3,29.31,SE,133,0.0,5.0,73,0.00,,,0.00,Wunderground v.1.15,2013-01-28 22:22:00,
2013-01-28 16:27:00,69.1,60.1,29.31,SE,133,0.0,5.0,73,0.00,,,0.00,Wunderground v.1.15,2013-01-28 22:27:00,
2013-01-28 16:32:00,-999.9,-99.9,29.31,SE,130,0.0,4.0,71,0.00,,,0.00,Wunderground v.1.15,2013-01-28 22:32:00,
2013-01-28 16:37:00,68.4,60.2,29.31,SE,128,0.0,4.0,75,0.00,,,0.00,Wunderground v.1.15,2013-01-28 22:37:00,
2013-01-28 16:42:00,68.4,-99.9,29.31,SE,126,0.0,4.0,255,0.00,,,0.00,Wunderground v.1.15,2013-01-28 22:42:00,
2013-01-28 16:47:00,67.2,60.1,29.31,SE,126,0.0,4.0,78,0.00,,,0.00,Wunderground v.1.15,2013-01-28 22:47:00,
2013-01-28 16:52:00,66.7,60.0,29.31,SE,126,0.0,1.0,79,0.00,,,0.00,Wunderground v.1.15,2013-01-28 22:52:00,
2013-01-28 16:57:00,66.2,59.8,29.31,SE,126,1.0,5.0,80,0.00,,,0.00,Wunderground v.1.15,2013-01-28 22:57:00,
2013-01-28 17:02:00,65.7,59.7,29.31,SE,124,1.0,5.0,81,0.00,,,0.00,Wunderground v.1.15,2013-01-28 23:02:00,
2013-01-28 17:08:00,65.4,59.8,29.31,SE,124,0.0,5.0,82,0.00,,,0.00,Wunderground v.1.15,2013-01-28 23:08:00,
2013-01-28 17:13:00,65.0,59.7,29.31,SE,124,2.0,4.0,83,0.00,,,0.00,Wunderground v.1.15,2013-01-28 23:13:00,
2013-01-28 17:19:00,64.7,59.4,29.31,SE,124,1.0,4.0,83,0.00,,,0.00,Wunderground v.1.15,2013-01-28 23:19:00,
2013-01-28 17:24:00,64.6,59.3,29.31,SE,124,1.0,4.0,83,0.00,,,0.00,Wunderground v.1.15,2013-01-28 23:24:00,
2013-01-28 17:29:00,64.0,59.1,29.31,SE,124,0.0,5.0,84,0.00,,,0.00,Wunderground v.1.15,2013-01-28 23:29:00,
2013-01-28 17:34:00,63.6,58.3,29.31,SE,124,0.0,1.0,83,0.00,,,0.00,Wunderground v.1.15,2013-01-28 23:34:00,
2013-01-28 17:39:00,63.2,58.3,29.31,SE,124,0.0,4.0,84,0.00,,,0.00,Wunderground v.1.15,2013-01-28 23:39:00,
2013-01-28 17:44:00,63.0,58.4,29.31,SE,124,0.0,5.0,85,0.00,,,0.00,Wunderground v.1.15,2013-01-28 23:44:00,
2013-01-28 17:49:00,62.9,58.3,29.31,SE,127,0.0,5.0,85,0.00,,,0.00,Wunderground v.1.15,2013-01-28 23:49:00,
2013-01-28 17:54:00,63.1,58.5,29.31,SSE,163,7.0,7.0,85,0.00,,,0.00,Wunderground v.1.15,2013-01-28 23:54:00,
2013-01-28 17:59:00,63.7,58.4,29.31,SSE,163,0.0,7.0,83,0.00,,,0.00,Wunderground v.1.15,2013-01-28 23:59:00,
2013-01-28 18:05:00,64.8,58.8,29.31,SSE,165,0.0,6.0,81,0.00,,,0.00,Wunderground v.1.15,2013-01-29 00:05:00,
2013-01-28 18:11:00,65.6,58.6,29.31,SSE,161,2.0,3.0,78,0.00,,,0.00,Wunderground v.1.15,2013-01-29 00:11:00,
2013-01-28 18:17:00,66.0,58.6,29.31,SSE,165,1.0,6.0,77,0.00,,,0.00,Wunderground v.1.15,2013-01-29 00:17:00,
2013-01-28 18:22:00,66.4,58.6,29.31,SSE,153,5.0,5.0,76,0.00,,,0.00,Wunderground v.1.15,2013-01-29 00:22:00,
2013-01-28 18:28:00,66.5,58.7,29.31,SE,146,8.0,8.0,76,0.00,,,0.00,Wunderground v.1.15,2013-01-29 00:28:00,
2013-01-28 18:33:00,67.2,59.4,29.31,SSE,157,0.0,5.0,76,0.00,,,0.00,Wunderground v.1.15,2013-01-29 00:33:00,
2013-01-28 18:38:00,66.2,58.4,29.31,SSE,157,0.0,5.0,76,0.00,,,0.00,Wunderground v.1.15,2013-01-29 00:38:00,
2013-01-28 18:43:00,65.9,58.1,29.31,SSE,157,2.0,2.0,76,0.00,,,0.00,Wunderground v.1.15,2013-01-29 00:43:00,
2013-01-28 18:48:00,65.7,58.3,29.31,SSE,154,0.0,8.0,77,0.00,,,0.00,Wunderground v.1.15,2013-01-29 00:48:00,
2013-01-28 18:53:00,65.5,58.1,29.31,SSE,154,0.0,2.0,77,0.00,,,0.00,Wunderground v.1.15,2013-01-29 00:53:00,
2013-01-28 18:59:00,-90.0,-93.3,29.31,SSE,153,0.0,4.0,77,0.00,,,0.00,Wunderground v.1.15,2013-01-29 00:59:00,
2013-01-28 19:04:00,65.5,58.1,29.31,SSE,154,1.0,5.0,77,0.00,,,0.00,Wunderground v.1.15,2013-01-29 01:04:00,
2013-01-28 19:09:00,65.2,57.8,29.31,SSE,154,1.0,5.0,77,0.00,,,0.00,Wunderground v.1.15,2013-01-29 01:09:00,
2013-01-28 19:14:00,64.6,57.6,29.31,SSE,154,0.0,1.0,78,0.00,,,0.00,Wunderground v.1.15,2013-01-29 01:14:00,
2013-01-28 19:19:00,64.1,57.1,29.31,SSE,154,0.0,5.0,78,0.00,,,0.00,Wunderground v.1.15,2013-01-29 01:19:00,
2013-01-28 19:24:00,63.8,57.2,29.31,SSE,154,2.0,7.0,79,0.00,,,0.00,Wunderground v.1.15,2013-01-29 01:24:00,
2013-01-28 19:29:00,63.8,57.5,29.31,SSE,159,1.0,7.0,80,0.00,,,0.00,Wunderground v.1.15,2013-01-29 01:29:00,
2013-01-28 19:34:00,64.2,57.5,29.31,SSE,163,2.0,7.0,79,0.00,,,0.00,Wunderground v.1.15,2013-01-29 01:34:00,
2013-01-28 19:39:00,64.5,56.4,29.30,SSE,154,1.0,8.0,75,0.00,,,0.00,Wunderground v.1.15,2013-01-29 01:39:00,
2013-01-28 19:44:00,64.4,57.4,29.30,SSE,165,4.0,6.0,78,0.00,,,0.00,Wunderground v.1.15,2013-01-29 01:44:00,
2013-01-28 19:49:00,64.4,57.4,29.30,SSE,150,0.0,8.0,78,0.00,,,0.00,Wunderground v.1.15,2013-01-29 01:49:00,
2013-01-28 19:54:00,64.5,-99.9,29.30,SE,142,2.0,8.0,255,0.00,,,0.00,Wunderground v.1.15,2013-01-29 01:54:00,
2013-01-28 20:00:00,64.4,57.4,29.29,SSE,152,4.0,4.0,78,0.00,,,0.00,Wunderground v.1.15,2013-01-29 02:00:00,
2013-01-28 20:05:00,-90.0,-93.7,29.29,SSE,154,9.0,10.0,75,0.00,,,0.00,Wunderground v.1.15,2013-01-29 02:05:00,
2013-01-28 20:10:00,64.9,57.9,29.29,SSE,157,7.0,8.0,78,0.00,,,0.00,Wunderground v.1.15,2013-01-29 02:10:00,
2013-01-28 20:15:00,64.8,57.8,29.29,SSE,157,4.0,10.0,78,0.00,,,0.00,Wunderground v.1.15,2013-01-29 02:15:00,
2013-01-28 20:20:00,64.2,56.8,29.29,SSE,155,0.0,9.0,77,0.00,,,0.00,Wunderground v.1.15,2013-01-29 02:20:00,
2013-01-28 20:25:00,-90.0,-99.9,29.29,SSE,161,6.0,11.0,255,0.00,,,0.00,Wunderground v.1.15,2013-01-29 02:25:00,
2013-01-28 20:30:00,64.3,56.6,29.29,SE,134,5.0,9.0,76,0.00,,,0.00,Wunderground v.1.15,2013-01-29 02:30:00,
2013-01-28 20:36:00,64.2,56.8,29.29,SSE,157,2.0,9.0,77,0.00,,,0.00,Wunderground v.1.15,2013-01-29 02:36:00,
2013-01-28 20:41:00,64.2,56.8,29.28,SSE,166,2.0,13.0,77,0.00,,,0.00,Wunderground v.1.15,2013-01-29 02:41:00,
2013-01-28 20:46:00,64.3,56.6,29.28,SE,138,7.0,13.0,76,0.00,,,0.00,Wunderground v.1.15,2013-01-29 02:46:00,
2013-01-28 20:53:00,64.2,56.5,29.28,SE,144,8.0,8.0,76,0.00,,,0.00,Wunderground v.1.15,2013-01-29 02:53:00,
2013-01-28 20:58:00,64.2,-99.9,29.28,SSE,160,5.0,10.0,255,0.00,,,0.00,Wunderground v.1.15,2013-01-29 02:58:00,
2013-01-28 21:03:00,63.9,56.5,29.28,SSE,161,0.0,5.0,77,0.00,,,0.00,Wunderground v.1.15,2013-01-29 03:03:00,
2013-01-28 21:08:00,63.7,56.0,29.28,SSE,157,5.0,11.0,76,0.00,,,0.00,Wunderground v.1.15,2013-01-29 03:08:00,
2013-01-28 21:13:00,63.7,56.4,29.28,SSE,153,0.0,10.0,77,0.00,,,0.00,Wunderground v.1.15,2013-01-29 03:13:00,
2013-01-28 21:19:00,64.0,55.5,29.28,SSE,168,4.0,10.0,74,0.00,,,0.00,Wunderground v.1.15,2013-01-29 03:19:00,
2013-01-28 21:24:00,64.1,56.7,29.27,South,175,4.0,6.0,77,0.00,,,0.00,Wunderground v.1.15,2013-01-29 03:24:00,
2013-01-28 21:30:00,64.4,-99.9,29.27,SSE,167,10.0,10.0,255,0.00,,,0.00,Wunderground v.1.15,2013-01-29 03:30:00,
2013-01-28 21:35:00,64.5,56.4,29.27,SSE,152,8.0,18.0,75,0.00,,,0.00,Wunderground v.1.15,2013-01-29 03:35:00,
2013-01-28 21:40:00,64.9,56.8,29.27,SSE,161,14.0,14.0,75,0.00,,,0.00,Wunderground v.1.15,2013-01-29 03:40:00,
2013-01-28 21:45:00,64.7,56.6,29.27,South,178,9.0,14.0,75,0.00,,,0.00,Wunderground v.1.15,2013-01-29 03:45:00,
2013-01-28 21:50:00,64.9,56.8,29.27,SSE,156,10.0,10.0,75,0.00,,,0.00,Wunderground v.1.15,2013-01-29 03:50:00,
2013-01-28 21:55:00,64.9,56.8,29.27,SSE,166,7.0,10.0,75,0.00,,,0.00,Wunderground v.1.15,2013-01-29 03:55:00,
2013-01-28 22:00:00,64.9,56.8,29.27,ESE,111,11.0,11.0,75,0.00,,,0.00,Wunderground v.1.15,2013-01-29 04:00:00,
2013-01-28 22:05:00,64.8,56.7,29.27,SSE,162,7.0,14.0,75,0.00,,,0.00,Wunderground v.1.15,2013-01-29 04:05:00,
2013-01-28 22:11:00,64.9,56.4,29.26,South,173,11.0,11.0,74,0.00,,,0.00,Wunderground v.1.15,2013-01-29 04:11:00,
2013-01-28 22:17:00,65.0,56.5,29.26,SSE,154,11.0,20.0,74,0.00,,,0.00,Wunderground v.1.15,2013-01-29 04:17:00,
2013-01-28 22:22:00,64.9,56.8,29.26,SSE,159,6.0,15.0,75,0.00,,,0.00,Wunderground v.1.15,2013-01-29 04:22:00,
2013-01-28 22:28:00,64.8,57.1,29.26,SSE,148,12.0,15.0,76,0.00,,,0.00,Wunderground v.1.15,2013-01-29 04:28:00,
2013-01-28 22:33:00,65.0,56.5,29.26,SSE,155,8.0,15.0,74,0.00,,,0.00,Wunderground v.1.15,2013-01-29 04:33:00,
2013-01-28 22:39:00,64.9,56.8,29.26,SSE,148,13.0,15.0,75,0.00,,,0.00,Wunderground v.1.15,2013-01-29 04:39:00,
2013-01-28 22:44:00,65.0,56.9,29.26,South,169,9.0,17.0,75,0.00,,,0.00,Wunderground v.1.15,2013-01-29 04:44:00,
2013-01-28 22:50:00,65.1,57.0,29.26,South,171,8.0,8.0,75,0.00,,,0.00,Wunderground v.1.15,2013-01-29 04:50:00,
2013-01-28 22:55:00,65.2,56.7,29.26,South,172,7.0,16.0,74,0.00,,,0.00,Wunderground v.1.15,2013-01-29 04:55:00,
2013-01-28 23:00:00,65.0,56.9,29.26,South,175,9.0,12.0,75,0.00,,,0.00,Wunderground v.1.15,2013-01-29 05:00:00,
2013-01-28 23:03:00,65.0,57.2,29.26,SSE,161,6.0,12.0,76,0.00,,,0.00,Wunderground v.1.15,2013-01-29 05:03:00,
2013-01-28 23:08:00,65.0,57.2,29.26,South,170,9.0,17.0,76,0.00,,,0.00,Wunderground v.1.15,2013-01-29 05:08:00,
2013-01-28 23:14:00,65.1,57.3,29.26,South,171,9.0,13.0,76,0.00,,,0.00,Wunderground v.1.15,2013-01-29 05:14:00,
2013-01-28 23:19:00,65.0,57.2,29.26,South,173,8.0,19.0,76,0.00,,,0.00,Wunderground v.1.15,2013-01-29 05:19:00,
2013-01-28 23:24:00,65.0,57.6,29.26,South,171,10.0,15.0,77,0.00,,,0.00,Wunderground v.1.15,2013-01-29 05:24:00,
2013-01-28 23:29:00,64.8,57.4,29.26,SSE,167,5.0,15.0,77,0.00,,,0.00,Wunderground v.1.15,2013-01-29 05:29:00,
2013-01-28 23:35:00,64.5,57.1,29.26,South,180,5.0,12.0,77,0.00,,,0.00,Wunderground v.1.15,2013-01-29 05:35:00,
2013-01-28 23:40:00,64.3,57.3,29.26,South,175,7.0,7.0,78,0.00,,,0.00,Wunderground v.1.15,2013-01-29 05:40:00,
2013-01-28 23:45:00,64.3,57.3,29.26,South,187,4.0,14.0,78,0.00,,,0.00,Wunderground v.1.15,2013-01-29 05:45:00,
2013-01-28 23:51:00,64.5,57.5,29.26,South,173,8.0,10.0,78,0.00,,,0.00,Wunderground v.1.15,2013-01-29 05:51:00,
2013-01-28 23:56:00,64.1,57.1,29.26,South,190,7.0,14.0,78,0.00,,,0.00,Wunderground v.1.15,2013-01-29 05:56:00,